Location: Glens Falls
(43.3090°N, 73.6440°W)
Time: 12:43:32

Cosmos 2263 Rocket - Pass Details

Date: 24 February 2018
Orbit: 823 x 850 km, 71.0° (Epoch: 18 March)

Event Time Altitude Azimuth Distance (km) Brightness Sun altitude
Rises 18:45:28 0° 170° (S) 3,343 5.2 -13.1°
Reaches altitude 10° 18:48:13 10° 158° (SSE) 2,417 4.4 -13.6°
Maximum altitude 18:52:47 27° 103° (ESE) 1,543 3.0 -14.5°
Enters shadow 18:55:48 17° 59° (ENE) 1,986 3.6 -15.0°
